Tracking 31013 objects as of 10-Jul-2025
HD Live streaming from Space Station
objects crossing your sky now

DELTA 1 DEB

Track DELTA 1 DEB now!
10-day predictions


NORAD ID: 10843
Int'l Code: 1976-077CP
Perigee: 1,345.3 km
Apogee: 1,527.0 km
Inclination: 101.7 °
Period: 114.4 minutes
Semi major axis: 7807 km
RCS: 0.0189 m2 (small)
Launch date: July 29, 1976
Source: United States (US)
Launch site: AIR FORCE WESTERN TEST RANGE (AFWTR)

Note: This is SATELLITE DEBRIS
Your satellite tracking list
Your tracking list is empty




NASA's NSSDC Master Catalog

Two Line Element Set (TLE):
1 10843U 76077CP  25189.36441975  .00000005  00000-0  28836-3 0  9992
2 10843 101.6609 157.1402 0116391 239.9051 279.2522 12.58536626245982
Source of the keplerian elements: AFSPC